Zurück zum Katalog

FENGYUN 1C DEB

AktivPO
NORAD 30764·DEBRIS·🇨🇳 China

Gestartet May 10, 1999 von Taiyuan Satellite Launch Center

Loading…

Nächste Überflüge (nächste 24 Stunden)

TLE

AktuellSource: Space-Track

Epoche: Sep 14, 2026, 19:32 UTC

1 30764U 99025AUA 26257.81406591  .00087729  00000-0  11326-2 0  9999
2 30764  98.7744 289.6901 0037244 287.1631  72.5544 15.57831214 54782

Verfolge FENGYUN 1C DEB in Echtzeit mit AllMySat

Download on the App Store